Regional Weather Roundup
Issued by NWS Bismarck, ND

Home | Current Version | Previous Version | Text Only | Print | Product List | Glossary On
Versions: 1 2 3 4 5 6 7 8 9 10 11 12 13 14 15 16 17 18 19 20 21 22 23 24 25 26 27 28 29 30 31 32 33 34 35 36 37 38 39 40 41 42 43 44 45 46 47 48 49 50
000
ASUS43 KBIS 210902
RWRBIS

NWR BROADCAST TEXT
NATIONAL WEATHER SERVICE BISMARCK ND
300 AM CST SAT JAN 21 2017

NOTE: "FAIR" INDICATES FEW OR NO CLOUDS BELOW 12,000 FEET WITH NO
SIGNIFICANT WEATHER AND/OR OBSTRUCTIONS TO VISIBILITY.


CITY           SKY/WX    TMP DP  RH WIND       PRES   REMARKS
WILLISTON      CLOUDY    24  22  91 CALM      29.31R
MINOT          CLOUDY    29  28  96 S3        29.31S FOG
MINOT AFB      CLOUDY    27  26  96 SW5       29.30S FOG
BISMARCK       CLOUDY    31  30  96 W6        29.32S FOG
DICKINSON      CLOUDY    29  25  85 NW12      29.27R WCI  19
GARRISON         N/A     23  22  96 CALM      29.30F
HETTINGER ARPT CLOUDY    30  26  85 NW13      29.30R WCI  20
JAMESTOWN      FOG       33  33 100 SE9       29.33S VSB 1/4
CARRINGTON     FOG       34  34 100 SE8       29.35S VSB 1/4
HAZEN          CLOUDY   N/A N/A N/A W8        29.33S
MANDAN         CLOUDY    27  27 100 NW8       29.32R FOG     WCI  18
STANLEY        FOG       14  14 100 CALM      29.30S VSB 1/4
WATFORD CITY   CLOUDY    23  23 100 SW6       29.30S WCI  16
$$

CITY           SKY/WX    TMP DP  RH WIND       PRES   REMARKS
GRAND FORKS    CLOUDY    35  32  88 SE10      29.41F
GRAND FORKS AF CLOUDY    34  34  99 SE10      29.41S
DEVILS LAKE    LGT RAIN N/A N/A N/A SE8       29.36S VSB 1/2
FARGO          CLOUDY    38  35  89 SE12      29.41S
GRAFTON        CLOUDY    34  34 100 SE10      29.43F
GWINNER        CLOUDY    34  34 100 SE13      29.37S VSB 1/2
$$

CITY           SKY/WX    TMP DP  RH WIND       PRES   REMARKS
ABERDEEN       CLOUDY    30  27  88 NE6       29.33F
MOBRIDGE       CLOUDY    24  21  88 CALM      29.29R FOG
BUFFALO          N/A     31  28  89 W12       29.26R
RAPID CITY     CLOUDY    34  30  85 N14       29.34S
GLASGOW        FAIR      23  21  92 NW12      29.33S WCI  12
SIDNEY         CLOUDY    35  28  75 NW16      29.31S
WOLF POINT     MOCLDY    27  24  89 SW7       29.35R WCI  19
MILES CITY     FOG       23  21  92 S3        29.36R VSB 1/4
BAKER          FAIR      28  25  88 W13       29.34R WCI  17
$$

CITY           SKY/WX    TMP DP  RH WIND       PRES   REMARKS
BILLINGS       FAIR      24  21  88 SW13      29.35R WCI  12
GREAT FALLS    FAIR      25  17  72 SW8       29.31S WCI  16
$$




USA.gov is the U.S. government's official web portal to all federal, state and local government web resources and services.